sat.trackr.live / text

‹ back to catalog

QIANFAN-117

NORAD 68644 · 2026-075J

PAYLOAD ACTIVE UNKNOWN

§ Identity

Operator
Country
PRC
Launch date
2026-04-07
Launch site
WSC
Launch vehicle
Mass (kg)
RCS (m²)

External: N2YO · Heavens-Above · Gunter

§ Orbital elements

Epoch: 2026-09-20T04:21:19.008000Z

Period
106.59 min
Inclination
88.9861°
Eccentricity
0.0002140
Mean motion
13.51023022 rev/d
Perigee alt
1,066.9 km
Apogee alt
1,070.1 km
Semi-major
7,446.6 km
B*
4.5443e-5
RAAN
311.3019°
Arg perigee
89.8560°
Mean anomaly
270.2836°
Rev number
2,263

§ Raw data

QIANFAN-1171 68644U 26075J   26263.18147000  .00000041  00000+0  45443-4 0  99962 68644  88.9861 311.3019 0002140  89.8560 270.2836 13.51023022 22631

JSON: /api/v1/satellites/68644 · /tle

For live sub-satellite position, see the globe view (requires WebGL).

§ Visibility from observer

Set your observer location to see the next 7 days of passes ≥ 10°. The values pass through the URL so the page stays shareable.

No JS? Fill the form by hand. The geolocation button needs JavaScript.